Location: Middlebury
(44.0153°N, 73.1678°W)
Time: 13:34:24
(UTC-04:00)

QB50P2 - Pass Details

Date: 21 June 2024
Orbit: 562 x 579 km, 98.0° (Epoch: 14 July)

Event Time Altitude Azimuth Distance (km) Brightness Sun altitude
Rises 02:42:53 0° 28° (NNE) 2,766 ? -18.1°
Reaches altitude 10° 02:45:32 10° 46° (NE) 1,862 ? -17.9°
Maximum altitude 02:48:30 20° 94° (E) 1,346 ? -17.7°
Drops below altitude 10° 02:51:26 10° 141° (SE) 1,849 ? -17.4°
Enters shadow 02:51:30 10° 142° (SE) 1,871 ? -17.4°
